Tracking 20621 objects as of 1-Apr-2020
HD Live streaming from Space Station
objects crossing your sky now

COSMOS 970 DEB

Track COSMOS 970 DEB now!
10-day predictions


NORAD ID: 14442
Int'l Code: 1977-121BE
Perigee: 972.3 km
Apogee: 1,000.6 km
Inclination: 65.4 °
Period: 104.7 minutes
Semi major axis: 7357 km
RCS: 0.062 m2 (small)
Launch date: December 21, 1977
Source: Commonwealth of Independent States (former USSR) (CIS)
Launch site: TYURATAM MISSILE AND SPACE COMPLEX (TTMTR)

Note: This is SATELLITE DEBRIS
aabbcc
Your satellite tracking list
Your tracking list is empty




NASA's NSSDC Master Catalog

Two Line Element Set (TLE):
1 14442U 77121BE  20091.85876709 +.00000562 +00000-0 +66805-3 0  9996
2 14442 065.3695 088.6253 0019232 254.7044 181.0561 13.75673110088930
Source of the keplerian elements: AFSPC